CW0630 Weather Reports


time (UTC)temp
C
wind
direction
speed
KPH
gust
KPH
rain 1hr
cm
rain 24hr
cm
rain mn
cm
humidity
%
barometer
mb
20260902141025 31 62 4.8 4.8 0.00 0.00 0.00 67 1018.3
20260902131031 28 350 1.6 1.6 0.00 0.00 0.00 75 1018.2
20260902121028 25 349 0.0 1.6 0.00 0.00 0.00 85 1017.8
20260902111046 24 350 0.0 0.0 0.00 0.00 0.00 88 1017.8
20260902101021 25 350 0.0 0.0 0.00 0.00 0.00 86 1017.5
20260902091032 25 360 0.0 0.0 0.00 0.00 0.00 86 1017.1
20260902081018 25 296 0.0 0.0 0.00 0.00 0.00 89 1016.9
20260902071020 24 292 0.0 0.0 0.00 0.00 0.00 89 1017.1
20260902061024 24 180 0.0 0.0 0.00 0.00 0.00 88 1016.9
20260902051042 25 180 0.0 0.0 0.00 0.00 0.00 83 1017.0
20260902041012 26 180 0.0 0.0 0.00 0.00 0.00 81 1016.6
20260902031022 26 180 0.0 0.0 0.00 0.00 0.00 80 1016.1
20260902021018 27 180 0.0 0.0 0.00 0.00 0.00 78 1016.2
20260902011030 27 180 0.0 0.0 0.00 0.00 0.00 75 1015.4
20260902001046 28 180 0.0 0.0 0.00 0.00 0.00 70 1015.0
20260901231023 30 180 0.0 0.0 0.00 0.00 0.00 65 1015.1
20260901221032 32 194 4.8 4.8 0.00 0.00 0.00 59 1015.5
20260901211013 33 326 1.6 1.6 0.00 0.00 0.00 58 1015.5
20260901201028 33 360 3.2 4.8 0.00 0.00 0.00 56 1016.0
20260901191015 35 10 3.2 6.4 0.00 0.00 0.00 50 1016.4
20260901181018 35 349 0.0 0.0 0.00 0.00 0.00 52 1016.6
20260901171043 34 316 4.8 4.8 0.00 0.00 0.00 55 1016.8
20260901161021 33 286 0.0 0.0 0.00 0.00 0.00 59 1017.7
20260901151021 33 215 6.4 6.4 0.00 0.00 0.00 65 1018.0